Sigfox identifier Datetime Temperature Humidity SNR
00393831 2018-10-09 09:18:54 20.9 39 16.4
00393831 2018-10-09 08:18:52 20.9 39 19.1
00393831 2018-10-09 07:18:52 20.9 39 19.2
00393831 2018-10-09 06:18:53 20.9 39 19.2
00393831 2018-10-09 05:18:58 20.9 38 19.1
00393831 2018-10-09 01:18:54 20.9 37 19.1
00393831 2018-10-08 23:18:56 20.9 37 19.2
00393831 2018-10-08 22:18:59 21.1 37 19.1
00393831 2018-10-08 21:19:01 21 36 18.8
00393831 2018-10-08 20:19:02 21.1 36 18.8
00393831 2018-10-08 19:19:03 21.1 36 19.1
00393831 2018-10-08 18:19:03 21.2 36 18.9
00393831 2018-10-08 16:19:04 21.1 35 18.9
00393831 2018-10-08 15:19:01 21.1 35 18.8
00393831 2018-10-08 14:19:02 21.1 35 18.7
00393831 2018-10-08 13:19:05 21.1 35 18.6
00393831 2018-10-08 11:19:10 20.7 33 18.5
00393831 2018-10-08 10:19:08 20.7 32 18.7
00393831 2018-10-08 09:19:10 20.6 31 20.5
00393831 2018-10-08 08:19:08 20.5 32 20.4
00393831 2018-10-08 07:19:10 20.5 33 20.5
00393831 2018-10-08 06:19:10 20.6 34 20.5
00393831 2018-10-08 05:19:10 20.6 34 20.5
00393831 2018-10-08 04:19:06 20.5 34 18.6
00393831 2018-10-08 03:19:08 20.5 35 18.4
00393831 2018-10-08 02:19:06 20.6 35 18.4
00393831 2018-10-08 01:19:07 20.6 36 18.5
00393831 2018-10-08 00:19:08 20.6 36 18.7
00393831 2018-10-07 23:19:11 20.7 36 18.6
00393831 2018-10-07 22:19:10 20.6 37 18.6
00393831 2018-10-07 21:19:10 20.6 37 18.8
00393831 2018-10-07 20:19:16 20.6 37 18.9
00393831 2018-10-07 19:19:14 20.7 38 18.8
00393831 2018-10-07 18:19:18 20.7 38 18.7
00393831 2018-10-07 17:19:22 20.7 38 18.7
00393831 2018-10-07 16:19:22 20.7 38 18.5
00393831 2018-10-07 15:19:24 20.7 37 18.5
00393831 2018-10-07 14:19:27 20.6 38 18.5
00393831 2018-10-07 13:19:29 20.6 38 18.6
00393831 2018-10-07 12:19:32 20.7 38 18.7
00393831 2018-10-07 11:19:36 20.7 38 18.7
00393831 2018-10-07 10:19:35 20.6 38 18.9
00393831 2018-10-07 09:19:37 20.7 38 19
00393831 2018-10-07 08:19:38 20.6 38 16
00393831 2018-10-07 07:19:39 20.7 38 16
00393831 2018-10-07 06:19:38 20.9 38 15.8
00393831 2018-10-07 05:19:36 20.7 38 16.1
00393831 2018-10-07 04:19:37 20.9 39 16.1
00393831 2018-10-07 03:19:36 20.8 39 16.1
00393831 2018-10-07 02:19:39 20.9 39 16.2
00393831 2018-10-07 01:19:34 20.9 39 16.3
00393831 2018-10-07 00:19:33 20.9 39 16.5
00393831 2018-10-06 23:19:36 20.9 39 16.4
00393831 2018-10-06 22:19:37 20.9 39 16.6
00393831 2018-10-06 21:19:35 20.9 39 16.6
00393831 2018-10-06 20:19:34 20.9 39 16.3
00393831 2018-10-06 19:19:33 20.9 39 16.2
00393831 2018-10-06 18:19:32 20.9 39 16.2
00393831 2018-10-06 17:19:34 20.9 39 16.4
00393831 2018-10-06 16:19:36 20.9 39 16.8
00393831 2018-10-06 15:19:38 21 39 17.3
00393831 2018-10-06 14:19:35 20.9 39 17.3
00393831 2018-10-06 13:19:36 20.9 39 17.5
00393831 2018-10-06 12:19:34 20.9 39 17.5
00393831 2018-10-06 11:19:35 20.9 39 17.5
00393831 2018-10-06 10:19:34 20.9 39 17.5
00393831 2018-10-06 09:19:32 20.9 39 17.2
00393831 2018-10-06 08:19:30 20.9 39 17.1
00393831 2018-10-06 07:19:25 21 39 17.5
00393831 2018-10-06 06:19:18 21 40 17.5
00393831 2018-10-06 05:19:12 21.1 40 17.6
00393831 2018-10-06 04:19:10 21 40 17.9
00393831 2018-10-06 03:19:06 21.1 41 18.6
00393831 2018-10-06 02:19:03 21 41 18.5
00393831 2018-10-06 01:19:00 21.1 41 18.9
00393831 2018-10-06 00:18:58 21.1 42 19
00393831 2018-10-05 23:18:57 21.3 42 18.9
00393831 2018-10-05 22:18:56 21.3 42 19
00393831 2018-10-05 21:18:55 21.3 43 19.4
00393831 2018-10-05 20:18:54 21.3 43 19.4
00393831 2018-10-05 19:18:52 21.4 43 19.4
00393831 2018-10-05 18:18:49 21.5 43 19.5
00393831 2018-10-05 17:18:47 21.5 44 19.6
00393831 2018-10-05 16:18:42 21.6 45 19.6
00393831 2018-10-05 15:18:38 21.7 44 19.6
00393831 2018-10-05 14:18:36 21.7 44 19.4
00393831 2018-10-05 13:18:37 21.5 44 19.5
00393831 2018-10-05 12:18:32 21.5 42 19.5
00393831 2018-10-05 11:18:28 21.3 38 19.6
00393831 2018-10-05 10:18:28 21.2 37 19.8
00393831 2018-10-05 09:18:28 21.1 35 20
00393831 2018-10-05 08:18:24 20.9 32 20.2
00393831 2018-10-05 07:18:22 20.7 30 20.4
00393831 2018-10-05 06:18:17 20.7 30 20.3
00393831 2018-10-05 05:18:12 20.6 29 20.6
00393831 2018-10-05 04:18:07 20.7 29 20.7
00393831 2018-10-05 03:18:01 20.7 29 20.4
00393831 2018-10-05 02:17:55 20.7 29 19.7
00393831 2018-10-05 01:17:50 20.8 30 20.2
00393831 2018-10-05 00:17:42 20.9 30 19.6
00393831 2018-10-04 23:17:40 21 31 19.8
00393831 2018-10-04 22:17:37 21 31 20
00393831 2018-10-04 21:17:34 21.1 30 19.6
00393831 2018-10-04 20:17:31 21 30 16.2
00393831 2018-10-04 19:17:28 21 30 16.5
00393831 2018-10-04 18:17:23 21.2 29 18
00393831 2018-10-04 17:17:17 21.3 31 0